Simultaneous Nadir Overpasses (SNOs) Predictions

Prediction of SNOs between GOES-16 and METOP-A Satellite Orbit:

Table of predicted SNOs for the next 14.0 days since TLE Epoch: 1/16/2021
Index Date Time (GOES-16) GOES-16 Lat,Lon METOP-A Lat,Lon Distance(km) Time Diff (sec)
1 01/17/2021 01:17:54 -0.01, -75.18 0.30, -73.68 170.78 80
2 01/18/2021 13:34:06 0.02, -75.22 0.69, -78.29 348.69 80
3 01/19/2021 13:13:26 0.02, -75.23 -0.41, -73.31 219.47 80
4 01/21/2021 01:35:07 -0.02, -75.22 -0.63, -77.94 309.79 80
5 01/22/2021 01:11:47 -0.01, -75.23 0.48, -72.96 258.49 80
6 01/23/2021 13:30:40 0.00, -75.28 0.51, -77.57 260.49 80
7 01/24/2021 13:12:40 -0.00, -75.30 -0.59, -72.59 308.08 80
8 01/26/2021 01:31:40 0.00, -75.29 -0.44, -77.22 220.53 80
9 01/27/2021 01:08:21 0.00, -75.31 0.67, -72.25 348.20 80
10 01/28/2021 13:27:13 -0.00, -75.36 0.33, -76.85 170.06 80
11 01/29/2021 13:09:14 0.00, -75.38 -0.78, -71.88 398.98 80
